Location: Charlottesville
(38.0290°N, 78.4770°W)
Time: 08:57:43
(UTC-05:00)

OTV 5 (USA 277) - Pass Details

Date: 10 October 2017
Orbit: 404 x 417 km, 43.0° (Epoch: 07 September)

Event Time Altitude Azimuth Distance (km) Brightness Sun altitude
Rises 19:41:43 0° 239° (WSW) 2,345 ? -12.4°
Reaches altitude 10° 19:43:49 10° 236° (WSW) 1,484 ? -12.8°
Maximum altitude 19:47:09 67° 154° (SSE) 454 ? -13.4°
Enters shadow 19:48:51 26° 77° (ENE) 852 ? -13.8°
